Beatrice, NE

10:02 PM CST on November 17, 2017 (GMT -0600)
Beatrice Municipal

Weather History for KBIE - January, 2013

Change the Weather History Date:

Wednesday, January 16, 2013

  Actual Average Record
Temperature  
Mean Temperature 38 °F -  
Max Temperature 53 °F 35 °F 62 °F (2015)
Min Temperature 23 °F 12 °F -13 °F (1977)
Degree Days  
Heating Degree Days 27    
Moisture  
Dew Point 23 °F    
Average Humidity 62    
Maximum Humidity 83    
Minimum Humidity 33    
Precipitation  
Precipitation 0.00 in - - ()
Sea Level Pressure  
Sea Level Pressure 30.04 in    
Wind  
Wind Speed 9 mph (West)    
Max Wind Speed 18 mph    
Max Gust Speed 23 mph    
Visibility 10 miles    
Events      
Averages and records for this station are not official NWS values.
T = Trace of Precipitation, MM = Missing Value Source: NWS Daily Summary

Daily Weather History Graph

Daily Weather History Graph

Search for Another Location

Airport or City:

Trip Planner

Search our weather history database for the weather conditions in past years. The results will help you decide how hot, cold, wet, or windy it might be!

Date:

Astronomy

Jan. 16, 2013 Rise Set
Actual Time 7:47 AM CST 5:26 PM CST
Civil Twilight 7:17 AM CST 5:56 PM CST
Nautical Twilight 6:43 AM CST 6:30 PM CST
Astronomical Twilight 6:11 AM CST 7:02 PM CST
Moon 10:23 AM CST (1/16) 11:20 PM CST (1/16)
Length of Visible Light 10h 39m
Length of Day
9h 39m
Waxing Crescent, 28% of the Moon is Illuminated
Jan 16
Waxing Crescent
Jan 18
First Quarter
Jan 26
Full
Feb 3
Last Quarter
Feb 10
New

Hourly Weather History & Observations

Time (CST) Temp. Windchill Dew Point Humidity Pressure Visibility Wind Dir Wind Speed Gust Speed Precip Events Conditions
12:15 AM 24.8 °F 14.0 °F 15.8 °F 69% 30.06 in 10.0 mi SSW 11.5 mph - N/A   Clear
12:35 AM 24.6 °F 15.1 °F 15.8 °F 69% 30.06 in 10.0 mi SSW 9.2 mph - N/A   Clear
12:55 AM 23.9 °F 14.2 °F 15.8 °F 71% 30.05 in 10.0 mi SSW 9.2 mph - N/A   Clear
1:15 AM 23.5 °F 14.5 °F 15.6 °F 72% 30.05 in 10.0 mi SSW 8.1 mph - N/A   Clear
1:35 AM 23.2 °F 15.0 °F 15.6 °F 73% 30.04 in 10.0 mi SW 6.9 mph - N/A   Clear
1:55 AM 23.4 °F 14.3 °F 15.8 °F 73% 30.04 in 10.0 mi SW 8.1 mph - N/A   Clear
2:35 AM 23.9 °F 15.0 °F 15.8 °F 71% 30.03 in 10.0 mi SSW 8.1 mph - N/A   Clear
2:55 AM 23.0 °F 14.7 °F 15.4 °F 73% 30.03 in 10.0 mi SW 6.9 mph - N/A   Clear
3:15 AM 23.0 °F 13.9 °F 15.6 °F 73% 30.02 in 10.0 mi SW 8.1 mph - N/A   Clear
3:35 AM 23.5 °F 13.7 °F 15.6 °F 72% 30.01 in 10.0 mi SSW 9.2 mph - N/A   Clear
3:55 AM 23.7 °F 14.7 °F 15.6 °F 71% 30.00 in 10.0 mi SW 8.1 mph - N/A   Clear
4:15 AM 23.0 °F 13.9 °F 15.8 °F 74% 29.98 in 10.0 mi SW 8.1 mph - N/A   Scattered Clouds
4:35 AM 23.9 °F 14.2 °F 15.4 °F 70% 29.98 in 10.0 mi SW 9.2 mph - N/A   Scattered Clouds
4:55 AM 23.9 °F 14.2 °F 15.4 °F 70% 29.98 in 10.0 mi SW 9.2 mph - N/A   Mostly Cloudy
5:15 AM 23.9 °F 15.0 °F 15.8 °F 71% 29.98 in 10.0 mi SW 8.1 mph - N/A   Mostly Cloudy
5:35 AM 24.3 °F 16.3 °F 15.8 °F 70% 29.97 in 10.0 mi SW 6.9 mph - N/A   Overcast
5:55 AM 24.8 °F 16.1 °F 17.6 °F 74% 29.96 in 10.0 mi SW 8.1 mph - N/A   Overcast
6:15 AM 26.6 °F 19.1 °F 17.6 °F 69% 29.97 in 10.0 mi SW 6.9 mph - N/A   Overcast
6:35 AM 27.1 °F 18.9 °F 18.1 °F 69% 29.98 in 10.0 mi WSW 8.1 mph - N/A   Overcast
6:55 AM 27.3 °F 19.1 °F 18.5 °F 69% 29.97 in 10.0 mi SW 8.1 mph - N/A   Overcast
7:15 AM 27.5 °F 19.3 °F 18.9 °F 70% 29.98 in 10.0 mi WSW 8.1 mph - N/A   Overcast
7:35 AM 27.1 °F 19.7 °F 19.0 °F 72% 29.98 in 10.0 mi SW 6.9 mph - N/A   Mostly Cloudy
7:55 AM 26.6 °F 20.0 °F 19.0 °F 73% 29.99 in 10.0 mi SW 5.8 mph - N/A   Scattered Clouds
8:15 AM 27.5 °F 22.2 °F 20.1 °F 74% 29.99 in 10.0 mi WSW 4.6 mph - N/A   Mostly Cloudy
8:35 AM 27.3 °F 22.0 °F 19.8 °F 73% 29.99 in 10.0 mi SW 4.6 mph - N/A   Scattered Clouds
8:55 AM 29.5 °F 24.5 °F 21.0 °F 71% 29.99 in 10.0 mi WSW 4.6 mph - N/A   Clear
9:15 AM 32.0 °F 26.4 °F 23.0 °F 69% 29.99 in 10.0 mi West 5.8 mph - N/A   Clear
9:35 AM 34.5 °F 27.9 °F 25.0 °F 68% 29.99 in 10.0 mi West 8.1 mph - N/A   Clear
9:55 AM 37.0 °F 31.0 °F 26.4 °F 65% 29.99 in 10.0 mi West 8.1 mph - N/A   Clear
10:15 AM 39.2 °F 33.6 °F 27.5 °F 63% 29.99 in 10.0 mi West 8.1 mph - N/A   Clear
10:35 AM 42.3 °F 36.8 °F 28.6 °F 58% 29.99 in 10.0 mi WNW 9.2 mph - N/A   Clear
10:55 AM 45.7 °F 39.5 °F 29.1 °F 52% 29.99 in 10.0 mi NW 13.8 mph 17.3 mph N/A   Clear
11:15 AM 47.7 °F - 28.8 °F 48% 30.00 in 10.0 mi NW 15.0 mph - N/A   Clear
11:35 AM 48.7 °F - 28.4 °F 45% 30.00 in 10.0 mi NW 16.1 mph - N/A   Clear
11:55 AM 49.5 °F - 28.2 °F 44% 30.00 in 10.0 mi NW 13.8 mph - N/A   Clear
12:15 PM 50.0 °F - 28.2 °F 43% 29.99 in 10.0 mi NW 13.8 mph - N/A   Clear
12:35 PM 51.3 °F - 28.0 °F 41% 29.99 in 10.0 mi NW 18.4 mph - N/A   Clear
12:55 PM 51.3 °F - 27.9 °F 40% 29.98 in 10.0 mi NW 16.1 mph 19.6 mph N/A   Clear
1:15 PM 51.8 °F - 27.3 °F 39% 29.98 in 10.0 mi NNW 17.3 mph - N/A   Clear
1:35 PM 52.0 °F - 27.3 °F 39% 29.98 in 10.0 mi WNW 13.8 mph - N/A   Clear
1:55 PM 51.8 °F - 26.6 °F 38% 29.99 in 10.0 mi NW 13.8 mph 18.4 mph N/A   Clear
2:15 PM 52.9 °F - 26.8 °F 36% 29.98 in 10.0 mi NW 16.1 mph 23.0 mph N/A   Clear
2:35 PM 52.9 °F - 26.2 °F 36% 29.99 in 10.0 mi NW 11.5 mph - N/A   Clear
2:55 PM 53.1 °F - 25.0 °F 34% 29.99 in 10.0 mi NW 13.8 mph - N/A   Clear
3:15 PM 53.2 °F - 25.5 °F 34% 29.99 in 10.0 mi WNW 9.2 mph - N/A   Clear
3:35 PM 53.2 °F - 24.6 °F 33% 30.00 in 10.0 mi WNW 12.7 mph - N/A   Clear
3:55 PM 52.7 °F - 23.9 °F 33% 30.02 in 10.0 mi NW 12.7 mph - N/A   Clear
4:15 PM 52.5 °F - 25.2 °F 35% 30.02 in 10.0 mi WNW 9.2 mph - N/A   Clear
4:35 PM 51.3 °F - 26.1 °F 38% 30.02 in 10.0 mi WNW 6.9 mph - N/A   Clear
4:55 PM 49.5 °F - 26.2 °F 40% 30.03 in 10.0 mi WNW 6.9 mph - N/A   Clear
5:15 PM 46.4 °F 42.9 °F 26.4 °F 46% 30.03 in 10.0 mi West 6.9 mph - N/A   Clear
5:35 PM 44.8 °F 41.6 °F 26.4 °F 49% 30.05 in 10.0 mi WNW 5.8 mph - N/A   Clear
5:55 PM 39.2 °F 35.0 °F 25.7 °F 58% 30.05 in 10.0 mi WNW 5.8 mph - N/A   Clear
6:15 PM 36.9 °F 33.1 °F 25.2 °F 63% 30.07 in 10.0 mi NW 4.6 mph - N/A   Clear
6:35 PM 35.2 °F 31.2 °F 26.2 °F 70% 30.08 in 10.0 mi NW 4.6 mph - N/A   Clear
6:55 PM 36.3 °F 28.4 °F 27.1 °F 69% 30.09 in 10.0 mi NW 11.5 mph - N/A   Clear
7:15 PM 36.3 °F 29.5 °F 27.0 °F 69% 30.10 in 10.0 mi NW 9.2 mph - N/A   Clear
7:35 PM 35.6 °F 28.0 °F 27.5 °F 72% 30.11 in 10.0 mi NW 10.4 mph - N/A   Clear
7:55 PM 35.8 °F 29.4 °F 27.5 °F 72% 30.12 in 10.0 mi NW 8.1 mph - N/A   Clear
8:15 PM 33.8 °F 27.7 °F 27.3 °F 77% 30.13 in 10.0 mi NW 6.9 mph - N/A   Clear
8:35 PM 33.1 °F - 27.0 °F 78% 30.15 in 10.0 mi Calm Calm - N/A   Clear
8:55 PM 36.0 °F 31.1 °F 27.9 °F 72% 30.17 in 10.0 mi North 5.8 mph - N/A   Clear
9:15 PM 32.7 °F 27.3 °F 27.1 °F 80% 30.17 in 10.0 mi North 5.8 mph - N/A   Clear
9:35 PM 38.5 °F 32.1 °F 28.6 °F 68% 30.19 in 10.0 mi NNE 9.2 mph - N/A   Clear
9:55 PM 37.4 °F 31.4 °F 28.4 °F 70% 30.19 in 10.0 mi North 8.1 mph - N/A   Clear
10:15 PM 35.2 °F 29.5 °F 27.7 °F 74% 30.20 in 10.0 mi North 6.9 mph - N/A   Clear
10:35 PM 33.4 °F 28.1 °F 27.5 °F 79% 30.21 in 10.0 mi North 5.8 mph - N/A   Clear
10:55 PM 31.8 °F 26.2 °F 26.2 °F 80% 30.21 in 10.0 mi NNW 5.8 mph - N/A   Clear
11:15 PM 31.5 °F - 26.6 °F 82% 30.22 in 10.0 mi Calm Calm - N/A   Clear
11:35 PM 32.2 °F - 27.5 °F 83% 30.23 in 10.0 mi Calm Calm - N/A   Clear
11:55 PM 31.3 °F - 26.1 °F 81% 30.25 in 10.0 mi Calm Calm - N/A   Clear